Regional Weather Roundup
Issued by NWS

Home | Current Version | Previous Version | Graphics & Text | Print | Product List | Glossary On
Versions: 1 2 3 4 5 6 7 8 9 10 11 12 13 14 15 16 17 18 19 20 21 22 23 24 25 26 27 28 29 30 31 32 33 34 35 36 37 38 39 40 41 42 43 44 45 46 47 48 49 50
474
ASUS43 KDMX 190101
RWRIA

WEATHER ROUNDUP FOR IOWA
NATIONAL WEATHER SERVICE DES MOINES IA
800 PM CDT WED APR 18 2018

NOTE: "FAIR" INDICATES FEW OR NO CLOUDS BELOW 12,000 FEET WITH NO
SIGNIFICANT WEATHER AND/OR OBSTRUCTIONS TO VISIBILITY.

* - THESE STATIONS ARE NOT NWS STATIONS...THUS NOT UNDER NWS
QUALITY CONTROL.  THEY ALSO DO NOT REPORT WEATHER SUCH
AS PRECIPITATION OR FOG.

IAZ001>003-012>014-020>022-031>034-043>046-190200-
   NORTHWEST IOWA

CITY           SKY/WX    TMP DP  RH WIND       PRES   REMARKS
CARROLL *      CLOUDY    34  30  86 NW15      30.12R WCI  24
CHEROKEE *     CLOUDY    33  32  95 NW8       30.15R WCI  26
DENISON *      CLOUDY    34  32  93 NW10      30.15S WCI  26
LE MARS *      CLOUDY    34  32  93 N10       30.17R WCI  26
ORANGE CITY *  CLOUDY    34  34 100 N7        30.16R WCI  28
SHELDON *      PTCLDY    32  32 100 NW10      30.14R WCI  24
SIOUX CITY     CLOUDY    36  32  85 N15       30.18R WCI  27
SPENCER        CLOUDY    32  28  85 NW9       30.13R WCI  24
STORM LAKE *   MOCLDY    32  30  93 N14       30.12R WCI  22
$$

IAZ055>058-069>071-079>083-090>094-190200-
   SOUTHWEST IOWA

CITY           SKY/WX    TMP DP  RH WIND       PRES   REMARKS
ATLANTIC *     MIX PCPN  36  32  87 NW14      30.14R WCI  27
AUDUBON *      CLOUDY    36  30  80 NW13      30.14R WCI  27
CLARINDA *     CLOUDY    37  28  70 NW15G23   30.18R WCI  28
COUNCIL BLFS * CLOUDY    37  37 100 NW10G20   30.16R WCI  30
CRESTON *      CLOUDY    36  28  75 NW21G28   30.13R WCI  24
HARLAN  *      CLOUDY    36  34  93 NW10      30.18R WCI  28
LAMONI         CLOUDY    36  25  64 NW15      30.10R WCI  27
RED OAK *      CLOUDY    37  30  75 MISG      30.16R
SHENANDOAH *   CLOUDY    37  30  75 NW9G16    30.18R WCI  31
$$

IAZ047>049-059>061-072>074-084-190200-
   CENTRAL IOWA

CITY           SKY/WX    TMP DP  RH WIND       PRES   REMARKS
AMES           MOCLDY    33  27  78 NW15      30.10R WCI  23
ANKENY *       MOCLDY    34  28  80 NW13      30.12R WCI  25
BOONE *        CLOUDY    32  30  93 MISG      30.09R
CHARITON *     CLOUDY    34  28  80 NW15G22   30.08R WCI  24
DES MOINES     CLOUDY    35  27  72 NW17G24   30.10R WCI  25
GRINNELL*      CLOUDY    32  30  93 NW12      30.07R WCI  23
KNOXVILLE *    CLOUDY    34  28  80 NW12      30.07R WCI  25
MARSHALLTOWN   CLOUDY    32  29  88 NW10      30.07R WCI  24
NEWTON *       CLOUDY    32  30  93 NW12      30.08R WCI  23
PELLA *        LGT SNOW  33  30  89 NW12      30.09R WCI  24
$$

IAZ004>006-015-016-023>025-035-036-190200-
   NORTH CENTRAL IOWA

CITY           SKY/WX    TMP DP  RH WIND       PRES   REMARKS
ALGONA *       PTCLDY    28  28 100 NW9       30.11R WCI  20
CLARION *      CLOUDY    30  28  93 NW10      30.10R WCI  21
ESTHERVILLE    CLOUDY    29  28  96 NW14      30.12R FOG     WCI  18
FORT DODGE *   CLOUDY    31  28  89 N6        30.12R WCI  25
MASON CITY     CLOUDY    30  28  92 NW9       30.09R WCI  22
FOREST CITY *  MIX PCPN  32  32 100 NW12      30.09R WCI  23
WEBSTER CITY * MIX PCPN  32  30  93 NW13      30.09R WCI  22
IOWA FALLS *   FLURRIES  31  29  93 NW10      30.09R WCI  22
$$

IAZ007>011-017>019-026>030-037>042-050>054-066-190200-
   NORTHEAST IOWA

CITY           SKY/WX    TMP DP  RH WIND       PRES   REMARKS
CEDAR RAPIDS   LGT SNOW  33  31  92 NW14      30.02R FOG     WCI  23
CHARLES CITY * LGT SNOW  30  30 100 NW12      30.06R WCI  21
CLINTON *      LGT SNOW  32  31  96 NW13      29.98R FOG     WCI  22
DECORAH *      LGT SNOW  30  30 100 NW8       30.02R WCI  23
DUBUQUE        LGT SNOW  30  28  92 N14       29.98R VSB 3/4 WCI  19
MONTICELLO *   FLURRIES  32  30  93 NW12      30.01R WCI  23
OELWEIN *      FLURRIES  30  30 100 NW12      30.04R WCI  21
WATERLOO       LGT SNOW  31  30  96 NW13      30.06R FOG     WCI  21
$$

IAZ064-065-067-068-078-190200-
   EAST CENTRAL IOWA

CITY           SKY/WX    TMP DP  RH WIND       PRES   REMARKS
DAVENPORT      LGT SNOW  31  30  96 NW10      30.01R FOG     WCI  22
IOWA CITY      FLURRIES  33  29  85 NW10      30.05R WCI  25
MT. PLEASANT * LGT RAIN  32  30  93 NW9G16    30.04R WCI  24
MUSCATINE *    FLURRIES  34  30  86 NW13      30.03R WCI  25
QUAD CITIES    CLOUDY    34  31  88 NW12G22   29.98R WCI  25
$$

IAZ062-063-075>077-085>089-095>099-190200-
   SOUTHEAST IOWA

CITY           SKY/WX    TMP DP  RH WIND       PRES   REMARKS
BURLINGTON     CLOUDY    35  29  78 NW10      30.01R WCI  27
FAIRFIELD *    CLOUDY    34  28  80 NW14      30.05R WCI  24
FORT MADISON * CLOUDY    34  30  86 NW12      30.03R WCI  25
KEOKUK *       CLOUDY    36  28  75 NW16G22   30.03R WCI  26
OSKALOOSA *    CLOUDY    33  29  88 NW12      30.07R WCI  24
CENTERVILLE *    N/A     34  32  93 W12       30.09R WCI  25
OTTUMWA        CLOUDY    34  28  79 NW12      30.06R WCI  25
WASHINGTON *   CLOUDY    34  34 100 NW13G18   30.05R WCI  25
$$

ABBREVIATIONS USED IN REMARKS
   TC - TEMPERATURES IN CELSIUS
  WCI - WIND CHILL INDEX
   HX - HEAT INDEX
  VSB - VISIBILITY
$$





USA.gov is the U.S. government's official web portal to all federal, state and local government web resources and services.